This demonstration page uses our WeatherBlox Daily Observations layout. Learn more.

Left ArrowRight Arrow

Hourly Observations for October 17, 2021

Temp ( °F °C ) Dew Point ( °F °C ) Humidity (%) Winds ( mph kmh ) Pressure ( in mb ) Visibility ( mi km ) Precip ( " mm )
12:15 am 00:15 Clear 50 10.2 34 1.1 54 54 SSW 7 11 30.24 1024 10 16 N/A
12:35 am 00:35 Clear 50 10 33 0.8 53 53 SSW 6 9 30.24 1024 10 16 N/A
12:55 am 00:55 Clear 49 9.5 33 0.8 55 55 SSW 6 9 30.24 1024 10 16 N/A
1:15 am 01:15 Clear 49 9.3 33 0.8 56 56 SW 7 11 30.24 1024 10 16 N/A
1:35 am 01:35 Clear 48 8.8 34 1 58 58 SW 6 9 30.24 1024 10 16 N/A
1:55 am 01:55 Clear 48 9 34 0.9 57 57 SW 6 9 30.24 1024 10 16 N/A
2:15 am 02:15 Clear 48 9.1 33 0.7 56 56 SW 7 11 30.24 1024 10 16 N/A
2:35 am 02:35 Clear 47 8.4 33 0.7 59 59 SSW 5 7 30.25 1024 10 16 N/A
2:55 am 02:55 Clear 47 8.4 33 0.7 59 59 SSW 7 11 30.25 1024 10 16 N/A
3:15 am 03:15 Clear 47 8.1 33 0.7 60 60 SW 7 11 30.25 1024 10 16 N/A
3:35 am 03:35 Clear 47 8.1 33 0.6 59 59 SSW 6 9 30.25 1024 10 16 N/A
3:55 am 03:55 Clear 47 8.3 33 0.5 58 58 SSW 5 7 30.24 1024 10 16 N/A
4:15 am 04:15 Clear 46 7.8 33 0.5 60 60 SSW 6 9 30.24 1024 10 16 N/A
4:35 am 04:35 Clear 46 8 33 0.5 59 59 SSW 6 9 30.24 1024 10 16 N/A
4:55 am 04:55 Clear 46 7.8 33 0.5 60 60 SSW 5 7 30.24 1024 10 16 N/A
5:15 am 05:15 Clear 46 7.6 33 0.6 62 62 SSW 5 7 30.24 1024 10 16 N/A
5:35 am 05:35 Clear 46 7.8 33 0.5 60 60 SW 5 7 30.23 1024 10 16 N/A
5:55 am 05:55 Clear 46 8 33 0.5 59 59 SSW 3 6 30.23 1024 10 16 N/A
6:15 am 06:15 Clear 46 7.6 32 0.2 60 60 SSW 6 9 30.23 1024 10 16 N/A
6:35 am 06:35 Clear 46 7.9 32 0.1 58 58 SSW 6 9 30.23 1024 10 16 N/A
6:55 am 06:55 Clear 47 8.1 32 0.2 58 58 SSW 6 9 30.23 1024 10 16 N/A
7:15 am 07:15 Clear 46 7.6 32 undefined 59 59 SSW 7 11 30.23 1024 10 16 N/A
7:35 am 07:35 Clear 46 8 32 undefined 57 57 SSW 7 11 30.22 1023 10 16 N/A
7:55 am 07:55 Sunny 46 7.5 32 undefined 59 59 SSW 6 9 30.23 1024 10 16 N/A
8:15 am 08:15 Sunny 46 7.6 32 undefined 59 59 SSW 7 11 30.22 1024 10 16 N/A
8:35 am 08:35 Sunny 46 7.8 33 0.3 59 59 SSW 6 9 30.23 1024 10 16 N/A
8:55 am 08:55 Sunny 48 9 34 1 58 58 SSW 7 11 30.22 1023 10 16 N/A
9:15 am 09:15 Sunny 51 10.5 35 1.4 54 54 SSW 3 6 30.21 1023 10 16 N/A
9:35 am 09:35 Sunny 54 12 34 1.1 48 48 SW 7 11 30.20 1023 10 16 N/A
9:55 am 09:55 Sunny 55 12.7 34 1.2 46 46 SW 6 9 30.19 1022 10 16 N/A
10:15 am 10:15 Sunny 57 14.1 36 2 44 44 SW 3 6 30.17 1022 10 16 N/A
10:35 am 10:35 Sunny 60 15.8 35 1.7 39 39 SW 5 7 30.15 1021 10 16 N/A
10:55 am 10:55 Sunny 64 17.7 35 1.6 34 34 SW 6 9 30.14 1021 10 16 N/A
11:15 am 11:15 Sunny 65 18.5 34 1.3 32 32 SW 8 13 30.13 1020 10 16 N/A
11:35 am 11:35 Sunny 65 18.6 34 1 31 31 SW 10 17 30.13 1020 10 16 N/A
11:55 am 11:55 Sunny 67 19.2 34 0.9 29 29 SW 12 19 30.12 1020 10 16 N/A
12:15 pm 12:15 Sunny 68 20.2 34 0.9 28 28 SSW 9 15 30.11 1019 10 16 N/A
12:35 pm 12:35 Sunny 70 20.9 32 0.2 25 25 SSW 13 20 30.10 1019 10 16 N/A
12:55 pm 12:55 Sunny 70 21.3 34 1 26 26 SSW 9 15 30.08 1018 10 16 N/A
1:15 pm 13:15 Sunny 72 22 35 1.4 26 26 SSW 12 19 30.06 1018 10 16 N/A
1:35 pm 13:35 Sunny 72 22.2 35 1.7 26 26 SW 12 19 30.06 1018 10 16 N/A
1:55 pm 13:55 Sunny 73 22.5 35 1.4 25 25 S 15 24 30.04 1017 10 16 N/A
2:15 pm 14:15 Sunny 73 23 36 2.2 26 26 SSW 13 20 30.02 1017 10 16 N/A
2:35 pm 14:35 Sunny 73 23 35 1.6 24 24 S 13 20 30.01 1016 10 16 N/A
2:55 pm 14:55 Sunny 74 23.5 33 0.6 22 22 S 13 20 29.99 1016 10 16 N/A
3:15 pm 15:15 Sunny 74 23.6 33 0.5 22 22 S 12 19 29.98 1015 10 16 N/A
3:35 pm 15:35 Sunny 74 23.6 34 0.9 22 22 S 15 24 29.98 1015 10 16 N/A
3:55 pm 15:55 Sunny 74 23.6 34 1.1 23 23 S 14 22 29.97 1015 10 16 N/A
4:15 pm 16:15 Sunny 74 23.6 33 0.6 22 22 S 13 20 29.97 1015 10 16 N/A
4:35 pm 16:35 Sunny 74 23.6 35 1.4 23 23 S 13 20 29.96 1014 10 16 N/A
4:55 pm 16:55 Sunny 74 23.5 35 1.5 24 24 S 13 20 29.95 1014 10 16 N/A
5:15 pm 17:15 Sunny 74 23.4 34 1 23 23 S 12 19 29.95 1014 10 16 N/A
5:35 pm 17:35 Sunny 73 23 35 1.4 24 24 S 10 17 29.94 1014 10 16 N/A
5:55 pm 17:55 Sunny 73 22.6 34 1 24 24 S 9 15 29.95 1014 10 16 N/A
6:15 pm 18:15 Sunny 71 21.5 35 1.9 27 27 SSE 7 11 29.94 1014 10 16 N/A
6:35 pm 18:35 Sunny 68 19.9 36 2 31 31 SSE 7 11 29.96 1014 10 16 N/A
6:55 pm 18:55 Clear 64 18 36 2.1 35 35 SSE 6 9 29.97 1015 10 16 N/A
7:15 pm 19:15 Clear 61 15.9 37 2.6 41 41 SSE 6 9 29.99 1016 10 16 N/A
7:35 pm 19:35 Clear 58 14.6 37 2.7 45 45 SSE 7 11 30.00 1016 10 16 N/A
7:55 pm 19:55 Clear 58 14.2 37 2.5 45 45 SSE 7 11 30.01 1016 10 16 N/A
8:15 pm 20:15 Clear 56 13.1 38 3.1 51 51 SSE 7 11 30.02 1016 10 16 N/A
8:35 pm 20:35 Clear 56 13.2 37 2.9 50 50 SSE 7 11 30.00 1016 10 16 N/A
8:55 pm 20:55 Clear 55 12.5 37 2.7 52 52 SSE 5 7 30.01 1016 10 16 N/A
9:15 pm 21:15 Clear 52 11 38 3.1 59 59 SE 7 11 30.03 1017 10 16 N/A
9:35 pm 21:35 Clear 52 11 38 3.1 59 59 SSE 7 11 30.03 1017 10 16 N/A
9:55 pm 21:55 Clear 51 10.7 38 3.2 60 60 SSE 6 9 30.04 1017 10 16 N/A
10:15 pm 22:15 Clear 51 10.4 38 3.2 61 61 SSE 5 7 30.03 1017 10 16 N/A
10:35 pm 22:35 Clear 51 10.6 38 3.2 60 60 SSE 7 11 30.03 1017 10 16 N/A
10:55 pm 22:55 Clear 51 10.6 38 3.5 62 62 SSE 7 11 30.02 1017 10 16 N/A
11:15 pm 23:15 Clear 52 10.9 39 3.9 62 62 SSE 7 11 30.01 1016 10 16 N/A
11:35 pm 23:35 Clear 53 11.9 40 4.2 60 60 SSE 7 11 30.01 1016 10 16 N/A
11:55 pm 23:55 Clear 52 11.3 39 4.1 62 62 S 6 9 30.00 1016 10 16 N/A

Powered by AerisWeather